Location: Syracuse
(43.0480°N, 76.1480°W)
Time: 12:24:00
(UTC-04:00)

Daily predictions for brighter satellites

Satellite Brightness Start Highest point End
(mag) Time Altitude Azimuth Time Altitude Azimuth Time Altitude Azimuth
Meteor 2-13 Rocket 4.5 20:58:37 10° N 21:04:44 84° E 21:10:48 10° S
Cosmos 1680 Rocket 3.7 21:00:13 10° SSW 21:05:26 80° WNW 21:10:40 10° NNE
Meteor 1-19 Rocket 4.4 21:01:00 10° S 21:06:48 87° W 21:12:32 10° N
Aureole 1 Rocket 2.2 21:04:31 10° SSW 21:07:42 84° WNW 21:10:40 10° NNE
Meteor 1-23 Rocket 4.4 21:02:36 10° S 21:07:59 53° E 21:13:27 10° NNE
Cosmos 1346 3.7 21:05:48 10° SSW 21:08:30 54° WNW 21:11:15 10° N
Cosmos 2056 Rocket 3.9 21:03:52 10° N 21:08:52 47° ENE 21:13:48 10° SE
Envisat 3.1 21:06:22 10° SSE 21:11:27 83° WSW 21:16:34 10° NNW
Lacrosse 5 rocket 4.2 21:13:02 10° NNW 21:15:36 15° N 21:18:12 10° NE
SAR-Lupe-4 3.6 21:12:54 10° SSE 21:16:30 88° WSW 21:20:07 10° NNW
Cosmos 2082 Rocket 3.3 21:12:29 10° SSE 21:16:52 24° ESE 21:21:16 10° NE
Cosmos 2278 4.3 21:12:20 10° NNW 21:17:48 45° ENE 21:23:13 10° SE
COSMOS 2406 4.1 21:14:44 10° SW 21:20:20 54° WNW 21:25:57 10° NNE
Cosmos 1743 4.3 21:19:10 10° NNW 21:22:47 37° W 21:26:23 10° SSW
Okean 1-7 Rocket 3.6 21:19:06 10° S 21:23:34 77° E 21:28:05 10° N
YAOGAN 6 2.5 21:20:31 10° SSE 21:23:59 68° ENE 21:27:30 10° N
Okean 2 3.5 21:22:20 10° S 21:26:19 54° E 21:30:19 10° NNE
Cosmos 1606 Rocket 3.9 21:22:13 10° N 21:26:25 47° ENE 21:30:35 10° SSE
Cosmos 1025 Rocket 2.9 21:27:22 10° S 21:31:37 83° E 21:35:55 10° N
SPOT 5 3.6 21:28:06 11° SE 21:31:39 31° ENE 21:35:33 10° N
Meteor 1-15 Rocket 4.2 21:26:15 10° N 21:31:51 77° E 21:37:25 10° SSE
Cosmos 1656 4.3 21:27:16 10° NNW 21:32:24 40° ENE 21:37:02 13° SE
CZ-4B DEB 3.4 21:29:49 10° S 21:32:44 49° W 21:35:40 10° NNW
SAR-Lupe-1 4.4 21:29:12 10° S 21:32:45 64° WSW 21:36:21 10° NNW
Cosmos 1697 Rocket 3.8 21:28:18 10° N 21:33:17 31° NE 21:37:54 11° ESE
MOS 1-B Rocket 4.3 21:29:16 10° SSE 21:35:01 58° ENE 21:41:34 10° N
Cosmos 1726 Rocket 3.8 21:31:09 10° N 21:35:21 49° ENE 21:39:07 12° SSE
Cosmos 2341 Rocket 4.2 21:29:58 10° N 21:36:15 59° E 21:42:28 10° SSE
Cosmos 405 3.6 21:33:45 10° NNW 21:37:15 55° W 21:40:42 10° S
Cosmos 2369 3.9 21:32:46 10° NNW 21:38:29 63° ENE 21:43:25 14° SE
Cosmos 1666 4.3 21:36:45 10° NNW 21:40:10 33° W 21:43:33 10° SSW
Cosmos 1452 Rocket 4.3 21:35:41 10° N 21:40:37 39° ENE 21:44:39 14° SE
COSMOS 2487 2.9 21:38:30 10° S 21:41:52 41° ESE 21:45:15 10° NNE
MetOp-A 4.2 21:41:22 12° SSE 21:46:21 68° ENE 21:51:42 10° N
ERS-1 Rocket 3.0 21:41:33 10° SSE 21:46:34 89° E 21:51:38 10° NNW
USA 245 3.4 21:47:12 20° ESE 21:48:03 25° ENE 21:50:01 10° NNE
Cosmos 1833 Rocket 3.1 21:44:28 10° S 21:49:40 40° ESE 21:54:54 10° NE
ISS -1.7 21:49:11 10° W 21:52:09 30° NNW 21:55:07 10° NE
SPOT 1/Viking Rocket 4.2 21:49:30 16° SE 21:53:17 42° ENE 21:58:07 10° N
Cosmos 2058 Rocket 3.2 21:50:51 10° N 21:55:15 61° E 21:58:30 18° SSE
Iridium 43 4.2 21:58:23 10° NNE 22:00:28 33° E 22:00:46 32° ESE
Cosmos 1295 Rocket 4.5 21:57:43 10° N 22:03:57 78° E 22:09:16 15° SSE
YAOGAN 11 4.0 22:02:03 18° SSE 22:05:12 81° ENE 22:09:35 10° NNW
Cosmos 1437 Rocket 3.6 22:01:59 10° NNW 22:05:41 46° W 22:09:19 11° SSW
Cosmos 2181 Rocket 4.0 21:59:26 10° S 22:05:47 77° E 22:12:04 10° N
USA 229 DEB 4.5 21:59:43 10° NNW 22:06:33 46° NE 22:12:17 15° ESE
USA 229 4.5 21:59:49 10° NNW 22:06:38 45° NE 22:12:23 15° ESE
ASTEX 1 4.3 22:02:11 10° SSW 22:06:53 46° W 22:11:36 10° NNW
Cosmos 1066 Rocket 4.3 22:06:49 15° S 22:11:19 57° E 22:16:52 10° NNE
Cosmos 1515 4.1 22:09:45 10° SSW 22:13:31 62° W 22:17:17 10° N
H-2A R/B 3.5 22:11:41 19° ESE 22:13:52 27° ENE 22:17:41 10° N
Cosmos 1980 Rocket 2.8 22:17:12 10° NNW 22:22:38 44° ENE 22:25:49 23° ESE
Cosmos 1626 Rocket 3.8 22:21:47 27° SSE 22:23:46 49° E 22:27:57 10° NNE
ARGOS 3.3 22:20:51 18° S 22:24:54 74° WSW 22:30:21 10° NNW
Cosmos 2228 3.4 22:29:01 10° NNW 22:33:15 60° W 22:35:49 22° SSW
TELKOM 3 4.0 22:31:25 10° WNW 22:33:47 42° SSW 22:33:53 42° SSW
Cosmos 921 Rocket 4.3 22:29:59 10° NW 22:34:05 36° W 22:37:02 16° SSW
Cosmos 2322 Rocket 3.9 22:29:40 10° N 22:34:07 23° NE 22:37:39 13° E
Cosmos 1953 4.1 22:31:40 10° NNE 22:34:34 18° ENE 22:35:24 17° E
Tiangong 2 0.9 22:35:43 10° W 22:38:55 78° S 22:39:21 61° ESE
SL-8 Rocket 4.1 22:33:29 10° N 22:39:45 75° W 22:44:11 21° S
H-2A R/B 2.0 22:38:01 27° S 22:40:44 82° WSW 22:45:51 10° NNW
Cosmos 1766 3.4 22:37:47 10° N 22:41:38 55° E 22:42:36 42° SE
Landsat 7 3.8 22:40:01 32° SSE 22:42:12 79° ENE 22:46:59 10° N
Meteor 1-21 4.4 22:41:30 29° SSE 22:44:12 54° E 22:49:48 10° NNE
PSLV R/B 4.4 22:46:03 27° ENE 22:46:03 27° ENE 22:48:12 10° N
Cosmos 2366 rocket 3.9 22:40:31 10° N 22:46:42 88° W 22:50:17 27° S
CZ-3A R/B 2.4 22:50:07 10° W 22:51:31 18° WNW 22:51:31 18° WNW
Lacrosse 5 rocket 3.3 22:52:12 10° NNW 22:56:13 28° NNE 22:59:31 13° E
Meteor 1-4 Rocket 3.4 22:53:49 10° NNW 22:57:12 41° W 22:58:16 32° SW
Terra 1.8 22:55:30 40° SSE 22:57:13 78° ENE 23:02:00 10° N
Cosmos 1602 Rocket 3.7 22:57:23 29° SSW 22:59:30 69° W 23:03:49 10° N
Cosmos 2082 Rocket 3.0 22:55:03 10° SW 23:00:35 52° WNW 23:06:06 10° NNE
Cosmos 1269 Rocket 3.9 23:01:07 26° SSW 23:04:08 87° ESE 23:09:29 10° NNE
Cosmos 1420 Rocket 4.3 23:01:45 10° NNW 23:06:54 57° WSW 23:08:59 34° SSW
DMSP B5D2-2 4.2 23:03:37 10° N 23:08:55 77° WNW 23:11:57 26° SSW
SPOT 5 4.4 23:07:20 15° SW 23:09:47 24° W 23:13:20 10° NW
Cosmos 1805 3.2 23:06:28 10° N 23:10:21 64° E 23:10:42 61° ESE
Cosmos 1048 Rocket 4.0 23:08:12 25° SSW 23:11:16 79° WNW 23:16:29 10° NNE
deb Chang Zheng 4 3.4 23:09:08 10° NNE 23:13:28 82° ESE 23:14:27 53° S
Cosmos 1110 Rocket 4.3 23:11:58 10° NNW 23:17:08 54° ENE 23:18:39 40° ESE
Cosmos 1697 Rocket 3.5 23:12:06 10° NW 23:17:20 41° WSW 23:19:38 28° SSW
Cosmos 1758 3.3 23:13:52 10° N 23:17:50 61° E 23:18:04 60° E
Cosmos 389 Rocket 3.0 23:15:26 10° N 23:18:31 47° ENE 23:18:31 47° ENE
Spot 4 3.8 23:21:37 51° SE 23:22:44 74° ENE 23:27:34 10° N
USA 267 4.0 23:17:37 10° ENE 23:22:58 31° ESE 23:22:58 31° ESE
Lacrosse 5 2.6 23:25:30 36° E 23:25:30 36° E 23:29:15 10° ENE
CARTOSAT-1 4.1 23:24:03 42° SW 23:25:03 51° W 23:29:17 10° NNW
Cosmos 2360 4.2 23:20:35 10° NNW 23:26:17 72° WSW 23:28:04 44° S
Iridium 2 3.9 23:23:38 10° N 23:27:22 61° W 23:27:42 58° WSW
Timation 2 Rocket 4.5 23:21:07 10° SW 23:27:23 59° WNW 23:33:26 10° NNE
SL-16 R/B 2.6 23:22:06 10° NNW 23:27:39 52° ENE 23:29:33 37° ESE
ISS -0.9 23:27:01 10° NW 23:29:23 18° N 23:31:45 10° NE
Cosmos 1934 Rocket 4.4 23:23:48 10° N 23:30:00 52° ENE 23:32:01 38° SE
NOSS 3-1 (C) 4.2 23:23:00 10° NNW 23:30:30 69° NE 23:34:52 31° SE
SeaSat 1 4.2 23:30:49 17° E 23:33:10 24° NE 23:37:04 10° N
IGS 5A 4.2 23:32:35 39° SW 23:33:19 43° W 23:37:18 10° NNW
Cosmos 1833 Rocket 4.3 23:28:42 10° WSW 23:33:41 32° NW 23:38:42 10° N
CZ-2C R/B 4.4 23:33:01 25° E 23:34:54 31° ENE 23:39:49 10° N
DELTA 2 DEB (DPAF) 4.0 23:34:36 66° SSE 23:35:13 86° ENE 23:39:44 10° NNW
SL-19 R/B 4.4 23:32:28 10° N 23:37:43 62° WNW 23:40:12 30° SW
ATLAS CENTAUR R/B 1.6 23:35:00 10° NNW 23:38:30 51° NE 23:38:30 51° NE
Cosmos 1842 4.1 23:38:51 38° WSW 23:39:38 43° WNW 23:43:25 10° N
Cosmos 1271 Rocket 3.7 23:36:32 10° NNW 23:40:11 37° W 23:40:35 36° WSW
CZ-4C R/B 3.3 23:45:30 68° NW 23:45:30 68° NW 23:48:48 10° NNW
Cosmos 1758 Rocket 3.4 23:47:43 79° SSW 23:47:59 87° W 23:52:22 10° N
Cosmos 2251 Rocket 3.5 23:47:56 58° SSE 23:48:43 66° ESE 23:54:04 10° NNE
Cosmos 1733 3.4 23:45:14 10° N 23:48:41 62° NE 23:48:41 62° NE
Cosmos 1544 4.4 23:46:18 10° NNW 23:49:33 32° W 23:49:33 32° W
H-2A R/B 3.4 23:48:48 29° WSW 23:49:45 31° W 23:53:48 10° NNW
